| time (UTC) | temp C | wind direction | speed KPH | gust KPH | rain 1hr cm | rain 24hr cm | rain mn cm | humidity % | barometer mb |
| 20260507003051 | 14 | 72 | 0.0 | 0.0 | 0.00 | 0.46 | 0.00 | 94 | 1011.5 |
| 20260507002551 | 14 | 78 | 0.0 | 0.0 | 0.00 | 0.46 | 0.00 | 94 | 1011.5 |
| 20260507002051 | 14 | 81 | 3.2 | 4.8 | 0.00 | 0.46 | 0.00 | 94 | 1011.4 |
| 20260507001636 | 14 | 73 | 1.6 | 3.2 | 0.00 | 0.46 | 0.00 | 94 | 1011.4 |
| 20260507001550 | 14 | 73 | 1.6 | 3.2 | 0.00 | 0.46 | 0.00 | 94 | 1011.4 |
| 20260507001050 | 14 | 20 | 0.0 | 3.2 | 0.00 | 0.46 | 0.00 | 94 | 1011.4 |
| 20260507000550 | 14 | 24 | 0.0 | 0.0 | 0.00 | 0.46 | 0.00 | 94 | 1011.4 |
| 20260507000049 | 14 | 18 | 0.0 | 0.0 | 0.00 | 0.46 | 0.00 | 94 | 1011.6 |
| 20260506235549 | 14 | 57 | 0.0 | 0.0 | 0.00 | 0.46 | 0.00 | 94 | 1011.6 |
| 20260506235048 | 14 | 57 | 0.0 | 0.0 | 0.00 | 0.46 | 0.00 | 94 | 1011.7 |
| 20260506234548 | 14 | 57 | 0.0 | 0.0 | 0.00 | 0.46 | 0.00 | 94 | 1011.6 |
| 20260506234048 | 14 | 57 | 0.0 | 0.0 | 0.00 | 0.46 | 0.00 | 94 | 1011.7 |
| 20260506233548 | 13 | 57 | 0.0 | 0.0 | 0.00 | 0.46 | 0.00 | 94 | 1011.6 |
| 20260506233047 | 13 | 57 | 0.0 | 0.0 | 0.00 | 0.46 | 0.00 | 94 | 1011.6 |
| 20260506232546 | 13 | 57 | 1.6 | 1.6 | 0.00 | 0.46 | 0.00 | 94 | 1011.6 |
| 20260506232046 | 14 | 66 | 1.6 | 1.6 | 0.00 | 0.46 | 0.00 | 94 | 1011.5 |
| 20260506231546 | 14 | 72 | 0.0 | 0.0 | 0.00 | 0.46 | 0.00 | 94 | 1011.5 |
| 20260506231045 | 14 | 72 | 0.0 | 0.0 | 0.00 | 0.46 | 0.00 | 94 | 1011.5 |
| 20260506230545 | 14 | 72 | 0.0 | 0.0 | 0.00 | 0.46 | 0.00 | 94 | 1011.6 |
| 20260506230044 | 14 | 72 | 0.0 | 1.6 | 0.00 | 0.46 | 0.00 | 94 | 1011.5 |
| 20260506225544 | 14 | 61 | 0.0 | 0.0 | 0.00 | 0.46 | 0.00 | 94 | 1011.5 |
| 20260506225044 | 14 | 61 | 0.0 | 0.0 | 0.00 | 0.46 | 0.00 | 94 | 1011.6 |
| 20260506224543 | 14 | 61 | 0.0 | 1.6 | 0.00 | 0.46 | 0.00 | 93 | 1011.5 |
| 20260506224043 | 14 | 61 | 1.6 | 1.6 | 0.00 | 0.46 | 0.00 | 93 | 1011.5 |
| 20260506223542 | 14 | 61 | 4.8 | 6.4 | 0.00 | 0.46 | 0.00 | 93 | 1011.5 |
| 20260506223042 | 14 | 56 | 0.0 | 1.6 | 0.00 | 0.46 | 0.00 | 93 | 1011.5 |
| 20260506222541 | 14 | 56 | 0.0 | 0.0 | 0.00 | 0.46 | 0.00 | 93 | 1011.5 |
| 20260506222041 | 14 | 60 | 0.0 | 1.6 | 0.00 | 0.46 | 0.00 | 93 | 1011.6 |
| 20260506221541 | 14 | 56 | 0.0 | 0.0 | 0.00 | 0.46 | 0.00 | 93 | 1011.6 |
| 20260506221040 | 14 | 56 | 0.0 | 0.0 | 0.00 | 0.46 | 0.00 | 93 | 1011.6 |
| 20260506220540 | 14 | 56 | 0.0 | 0.0 | 0.00 | 0.46 | 0.00 | 93 | 1011.5 |
| 20260506220039 | 14 | 56 | 0.0 | 0.0 | 0.00 | 0.46 | 0.00 | 93 | 1011.4 |
| 20260506215539 | 14 | 63 | 0.0 | 0.0 | 0.00 | 0.46 | 0.46 | 93 | 1011.4 |
| 20260506214538 | 14 | 67 | 0.0 | 1.6 | 0.00 | 0.46 | 0.46 | 93 | 1011.4 |
| 20260506214038 | 15 | 72 | 0.0 | 0.0 | 0.00 | 0.46 | 0.46 | 92 | 1011.3 |
| 20260506213537 | 15 | 72 | 0.0 | 0.0 | 0.00 | 0.46 | 0.46 | 92 | 1011.3 |
| 20260506213037 | 15 | 72 | 0.0 | 0.0 | 0.00 | 0.46 | 0.46 | 92 | 1011.4 |
| 20260506212537 | 15 | 70 | 0.0 | 1.6 | 0.00 | 0.46 | 0.46 | 92 | 1011.4 |
| 20260506211536 | 15 | 70 | 0.0 | 1.6 | 0.00 | 0.46 | 0.46 | 92 | 1011.5 |
| 20260506211035 | 15 | 70 | 0.0 | 3.2 | 0.00 | 0.46 | 0.46 | 92 | 1011.4 |
| 20260506210535 | 15 | 70 | 0.0 | 1.6 | 0.00 | 0.46 | 0.46 | 92 | 1011.3 |
| 20260506210034 | 15 | 70 | 0.0 | 1.6 | 0.00 | 0.46 | 0.46 | 92 | 1011.3 |
| 20260506205534 | 15 | 70 | 0.0 | 3.2 | 0.00 | 0.46 | 0.46 | 91 | 1011.3 |
| 20260506204533 | 15 | 73 | 3.2 | 4.8 | 0.00 | 0.46 | 0.46 | 91 | 1011.2 |
| 20260506204033 | 15 | 76 | 3.2 | 6.4 | 0.00 | 0.46 | 0.46 | 91 | 1011.4 |
| 20260506203532 | 15 | 69 | 1.6 | 3.2 | 0.00 | 0.46 | 0.46 | 91 | 1011.4 |
| 20260506203032 | 15 | 69 | 0.0 | 1.6 | 0.00 | 0.46 | 0.46 | 92 | 1011.3 |
| 20260506202532 | 15 | 69 | 1.6 | 4.8 | 0.00 | 0.46 | 0.46 | 91 | 1011.3 |
| 20260506202031 | 15 | 73 | 1.6 | 4.8 | 0.00 | 0.46 | 0.46 | 91 | 1011.2 |
| 20260506201531 | 15 | 81 | 1.6 | 4.8 | 0.00 | 0.46 | 0.46 | 92 | 1011.2 |
| 20260506201030 | 15 | 76 | 3.2 | 4.8 | 0.00 | 0.46 | 0.46 | 92 | 1011.1 |
| 20260506200530 | 15 | 294 | 0.0 | 1.6 | 0.00 | 0.46 | 0.46 | 92 | 1011.1 |
| 20260506200029 | 15 | 45 | 0.0 | 1.6 | 0.00 | 0.46 | 0.46 | 92 | 1011.0 |
| 20260506195529 | 15 | 42 | 1.6 | 3.2 | 0.00 | 0.46 | 0.46 | 92 | 1010.9 |
| 20260506194528 | 15 | 62 | 1.6 | 3.2 | 0.00 | 0.46 | 0.46 | 92 | 1010.9 |
| 20260506194028 | 15 | 67 | 0.0 | 1.6 | 0.00 | 0.46 | 0.46 | 92 | 1010.8 |
| 20260506193527 | 15 | 66 | 0.0 | 1.6 | 0.00 | 0.46 | 0.46 | 92 | 1010.8 |
| 20260506193027 | 16 | 70 | 0.0 | 1.6 | 0.00 | 0.46 | 0.46 | 92 | 1010.8 |
| 20260506192526 | 16 | 71 | 3.2 | 8.0 | 0.00 | 0.46 | 0.46 | 92 | 1010.7 |
| 20260506192026 | 16 | 72 | 0.0 | 1.6 | 0.00 | 0.46 | 0.46 | 92 | 1010.7 |
| 20260506191526 | 16 | 71 | 0.0 | 3.2 | 0.00 | 0.46 | 0.46 | 92 | 1010.7 |
| 20260506191025 | 16 | 76 | 3.2 | 4.8 | 0.00 | 0.46 | 0.46 | 92 | 1010.7 |
| 20260506190525 | 16 | 67 | 3.2 | 6.4 | 0.00 | 0.46 | 0.46 | 92 | 1010.7 |
| 20260506190024 | 16 | 69 | 0.0 | 1.6 | 0.00 | 0.46 | 0.46 | 91 | 1010.6 |
| 20260506185524 | 16 | 66 | 1.6 | 4.8 | 0.00 | 0.46 | 0.46 | 91 | 1010.5 |
| 20260506185024 | 16 | 78 | 3.2 | 4.8 | 0.00 | 0.46 | 0.46 | 91 | 1010.4 |
| 20260506184523 | 16 | 77 | 1.6 | 3.2 | 0.00 | 0.46 | 0.46 | 91 | 1010.5 |
| 20260506184023 | 16 | 57 | 6.4 | 6.4 | 0.00 | 0.46 | 0.46 | 90 | 1010.3 |
| 20260506183522 | 16 | 65 | 6.4 | 8.0 | 0.00 | 0.46 | 0.46 | 90 | 1010.2 |
| 20260506183023 | 16 | 64 | 8.0 | 9.7 | 0.00 | 0.46 | 0.46 | 90 | 1010.2 |
| 20260506182522 | 16 | 68 | 3.2 | 4.8 | 0.00 | 0.46 | 0.46 | 90 | 1010.2 |
| 20260506182021 | 16 | 59 | 0.0 | 1.6 | 0.00 | 0.46 | 0.46 | 90 | 1010.4 |
| 20260506181521 | 17 | 62 | 0.0 | 1.6 | 0.00 | 0.46 | 0.46 | 90 | 1010.3 |
| 20260506181020 | 17 | 63 | 0.0 | 1.6 | 0.00 | 0.46 | 0.46 | 90 | 1010.3 |
| 20260506180520 | 17 | 64 | 0.0 | 1.6 | 0.00 | 0.46 | 0.46 | 89 | 1010.3 |
| 20260506180019 | 17 | 64 | 0.0 | 1.6 | 0.00 | 0.46 | 0.46 | 89 | 1010.1 |
| 20260506175519 | 17 | 63 | 0.0 | 3.2 | 0.00 | 0.46 | 0.46 | 89 | 1010.1 |
| 20260506175019 | 17 | 64 | 0.0 | 1.6 | 0.00 | 0.46 | 0.46 | 89 | 1010.0 |
| 20260506174518 | 17 | 75 | 3.2 | 6.4 | 0.00 | 0.46 | 0.46 | 88 | 1010.0 |
| 20260506174018 | 17 | 63 | 0.0 | 3.2 | 0.00 | 0.46 | 0.46 | 88 | 1009.8 |
| 20260506173517 | 17 | 75 | 1.6 | 4.8 | 0.00 | 0.46 | 0.46 | 88 | 1009.8 |
| 20260506173018 | 17 | 76 | 4.8 | 6.4 | 0.00 | 0.46 | 0.46 | 87 | 1009.9 |
| 20260506172517 | 17 | 77 | 1.6 | 4.8 | 0.00 | 0.46 | 0.46 | 87 | 1009.8 |
| 20260506171516 | 17 | 57 | 0.0 | 1.6 | 0.00 | 0.46 | 0.46 | 87 | 1009.9 |
| 20260506171015 | 17 | 71 | 0.0 | 1.6 | 0.00 | 0.46 | 0.46 | 87 | 1009.8 |
| 20260506170515 | 17 | 76 | 0.0 | 1.6 | 0.00 | 0.46 | 0.46 | 87 | 1009.8 |
| 20260506170015 | 17 | 76 | 0.0 | 1.6 | 0.00 | 0.46 | 0.46 | 87 | 1009.7 |
| 20260506165514 | 17 | 76 | 1.6 | 3.2 | 0.00 | 0.46 | 0.46 | 86 | 1009.8 |
| 20260506165014 | 17 | 78 | 0.0 | 1.6 | 0.00 | 0.46 | 0.46 | 86 | 1009.8 |
| 20260506164513 | 17 | 72 | 3.2 | 4.8 | 0.00 | 0.46 | 0.46 | 85 | 1009.7 |
| 20260506164013 | 17 | 79 | 0.0 | 1.6 | 0.00 | 0.46 | 0.46 | 85 | 1009.8 |
| 20260506163512 | 17 | 79 | 0.0 | 1.6 | 0.00 | 0.46 | 0.46 | 85 | 1009.8 |
| 20260506163012 | 17 | 79 | 3.2 | 4.8 | 0.00 | 0.46 | 0.46 | 85 | 1010.0 |
| 20260506162512 | 17 | 72 | 0.0 | 4.8 | 0.00 | 0.46 | 0.46 | 84 | 1010.0 |
| 20260506162011 | 17 | 65 | 0.0 | 1.6 | 0.00 | 0.46 | 0.46 | 84 | 1009.9 |
| 20260506161511 | 17 | 65 | 1.6 | 1.6 | 0.00 | 0.46 | 0.46 | 86 | 1010.1 |
| 20260506161010 | 17 | 87 | 0.0 | 1.6 | 0.00 | 0.46 | 0.46 | 87 | 1009.9 |
| 20260506160510 | 17 | 88 | 0.0 | 3.2 | 0.00 | 0.46 | 0.46 | 88 | 1009.9 |
| 20260506160010 | 17 | 88 | 1.6 | 1.6 | 0.00 | 0.46 | 0.46 | 88 | 1009.8 |
| 20260506155509 | 17 | 79 | 3.2 | 6.4 | 0.00 | 0.46 | 0.46 | 88 | 1009.9 |
| 20260506155009 | 17 | 69 | 0.0 | 4.8 | 0.00 | 0.46 | 0.46 | 88 | 1010.0 |
| 20260506154508 | 17 | 65 | 4.8 | 8.0 | 0.00 | 0.46 | 0.46 | 89 | 1009.9 |
| 20260506154008 | 17 | 56 | 1.6 | 4.8 | 0.00 | 0.46 | 0.46 | 88 | 1009.9 |
| 20260506153507 | 17 | 76 | 0.0 | 0.0 | 0.00 | 0.46 | 0.46 | 88 | 1009.9 |
| 20260506153007 | 17 | 78 | 0.0 | 1.6 | 0.00 | 0.46 | 0.46 | 89 | 1009.9 |
| 20260506152507 | 17 | 78 | 0.0 | 1.6 | 0.00 | 0.46 | 0.46 | 89 | 1010.0 |
| 20260506152006 | 17 | 89 | 3.2 | 4.8 | 0.00 | 0.46 | 0.46 | 89 | 1009.8 |
| 20260506151506 | 17 | 101 | 0.0 | 3.2 | 0.00 | 0.46 | 0.46 | 89 | 1009.9 |
| 20260506151006 | 17 | 75 | 3.2 | 6.4 | 0.00 | 0.46 | 0.46 | 89 | 1009.9 |
| 20260506150506 | 17 | 75 | 4.8 | 6.4 | 0.00 | 0.46 | 0.46 | 89 | 1009.9 |
| 20260506150006 | 17 | 62 | 0.0 | 1.6 | 0.00 | 0.46 | 0.46 | 89 | 1010.0 |
| 20260506145506 | 17 | 62 | 0.0 | 1.6 | 0.00 | 0.46 | 0.46 | 90 | 1010.1 |
| 20260506145006 | 17 | 74 | 3.2 | 3.2 | 0.00 | 0.46 | 0.46 | 91 | 1010.1 |
| 20260506144506 | 17 | 74 | 3.2 | 4.8 | 0.00 | 0.46 | 0.46 | 90 | 1010.1 |
| 20260506144006 | 17 | 66 | 0.0 | 1.6 | 0.03 | 0.46 | 0.46 | 91 | 1010.1 |
| 20260506143505 | 16 | 66 | 0.0 | 3.2 | 0.03 | 0.46 | 0.46 | 91 | 1010.1 |
| 20260506143005 | 16 | 67 | 1.6 | 4.8 | 0.08 | 0.46 | 0.46 | 91 | 1010.1 |
| 20260506142505 | 16 | 79 | 0.0 | 4.8 | 0.10 | 0.46 | 0.46 | 92 | 1010.0 |
| 20260506142005 | 16 | 83 | 1.6 | 4.8 | 0.10 | 0.46 | 0.46 | 92 | 1010.0 |
| 20260506141505 | 16 | 74 | 4.8 | 8.0 | 0.15 | 0.46 | 0.46 | 92 | 1010.0 |
| 20260506141005 | 16 | 75 | 3.2 | 6.4 | 0.18 | 0.46 | 0.46 | 93 | 1010.0 |
| 20260506140505 | 16 | 69 | 0.0 | 9.7 | 0.28 | 0.46 | 0.46 | 93 | 1010.1 |
| 20260506140005 | 16 | 82 | 3.2 | 8.0 | 0.30 | 0.51 | 0.46 | 94 | 1010.1 |
| 20260506135505 | 16 | 68 | 0.0 | 1.6 | 0.30 | 0.51 | 0.46 | 94 | 1010.1 |
| 20260506135005 | 16 | 68 | 0.0 | 1.6 | 0.30 | 0.51 | 0.46 | 94 | 1010.2 |
| 20260506134505 | 16 | 82 | 0.0 | 4.8 | 0.30 | 0.51 | 0.46 | 93 | 1010.3 |
| 20260506133505 | 16 | 76 | 1.6 | 4.8 | 0.28 | 0.46 | 0.43 | 93 | 1010.5 |
| 20260506133005 | 16 | 79 | 3.2 | 4.8 | 0.23 | 0.43 | 0.38 | 92 | 1010.5 |
| 20260506132505 | 16 | 90 | 3.2 | 6.4 | 0.18 | 0.38 | 0.36 | 92 | 1010.5 |
| 20260506132005 | 16 | 76 | 3.2 | 8.0 | 0.18 | 0.38 | 0.36 | 92 | 1010.6 |
| 20260506131505 | 16 | 86 | 3.2 | 8.0 | 0.15 | 0.36 | 0.30 | 91 | 1010.6 |
| 20260506131005 | 16 | 97 | 1.6 | 4.8 | 0.10 | 0.30 | 0.28 | 91 | 1010.6 |
| 20260506130505 | 17 | 81 | 3.2 | 8.0 | 0.03 | 0.23 | 0.18 | 88 | 1010.6 |
| 20260506130014 | 17 | 69 | 3.2 | 6.4 | 0.00 | 0.18 | 0.15 | 86 | 1010.7 |
| 20260506130006 | 17 | 69 | 3.2 | 6.4 | 0.00 | 0.18 | 0.15 | 86 | 1010.7 |
| 20260506125505 | 17 | 109 | 0.0 | 3.2 | 0.00 | 0.18 | 0.15 | 87 | 1010.6 |
| 20260506125005 | 17 | 129 | 0.0 | 1.6 | 0.00 | 0.18 | 0.15 | 87 | 1010.7 |
| 20260506124505 | 17 | 102 | 0.0 | 1.6 | 0.00 | 0.18 | 0.15 | 87 | 1010.6 |
| 20260506124005 | 17 | 76 | 4.8 | 6.4 | 0.00 | 0.18 | 0.15 | 85 | 1010.7 |
| 20260506123505 | 17 | 107 | 1.6 | 4.8 | 0.00 | 0.23 | 0.15 | 83 | 1010.7 |
| 20260506123005 | 17 | 81 | 0.0 | 3.2 | 0.00 | 0.23 | 0.15 | 83 | 1010.7 |
| 20260506122505 | 17 | 91 | 3.2 | 9.7 | 0.00 | 0.23 | 0.15 | 81 | 1010.8 |
| 20260506122005 | 17 | 81 | 1.6 | 4.8 | 0.00 | 0.23 | 0.15 | 82 | 1010.8 |
| 20260506121504 | 18 | 84 | 3.2 | 6.4 | 0.00 | 0.23 | 0.15 | 81 | 1010.7 |
| 20260506121004 | 17 | 78 | 3.2 | 6.4 | 0.00 | 0.23 | 0.15 | 82 | 1010.7 |
| 20260506120504 | 17 | 69 | 3.2 | 8.0 | 0.00 | 0.23 | 0.15 | 83 | 1010.8 |
| 20260506120004 | 17 | 71 | 6.4 | 9.7 | 0.00 | 0.23 | 0.15 | 82 | 1010.8 |
| 20260506115504 | 17 | 70 | 3.2 | 8.0 | 0.00 | 0.23 | 0.15 | 83 | 1011.0 |
| 20260506115004 | 17 | 85 | 1.6 | 4.8 | 0.00 | 0.23 | 0.15 | 83 | 1011.0 |
| 20260506114504 | 17 | 80 | 3.2 | 8.0 | 0.00 | 0.23 | 0.15 | 83 | 1011.1 |
| 20260506114004 | 17 | 70 | 3.2 | 4.8 | 0.00 | 0.23 | 0.15 | 82 | 1011.1 |
| 20260506113504 | 17 | 70 | 3.2 | 6.4 | 0.00 | 0.23 | 0.15 | 83 | 1011.0 |
| 20260506113004 | 17 | 73 | 1.6 | 1.6 | 0.00 | 0.23 | 0.15 | 83 | 1011.2 |
| 20260506112504 | 17 | 70 | 1.6 | 4.8 | 0.00 | 0.23 | 0.15 | 83 | 1011.3 |
| 20260506112004 | 17 | 82 | 1.6 | 4.8 | 0.00 | 0.23 | 0.15 | 85 | 1011.3 |
| 20260506111503 | 17 | 62 | 0.0 | 1.6 | 0.00 | 0.23 | 0.15 | 84 | 1011.4 |
| 20260506111003 | 17 | 111 | 0.0 | 1.6 | 0.00 | 0.23 | 0.15 | 84 | 1011.4 |
| 20260506110503 | 16 | 105 | 0.0 | 3.2 | 0.03 | 0.23 | 0.15 | 86 | 1011.5 |
| 20260506110003 | 16 | 16 | 1.6 | 3.2 | 0.03 | 0.23 | 0.15 | 88 | 1011.4 |
| 20260506105503 | 16 | 95 | 1.6 | 4.8 | 0.03 | 0.23 | 0.15 | 88 | 1011.5 |
| 20260506105003 | 16 | 88 | 0.0 | 1.6 | 0.03 | 0.23 | 0.15 | 88 | 1011.5 |
| 20260506104503 | 16 | 59 | 0.0 | 3.2 | 0.03 | 0.23 | 0.15 | 87 | 1011.6 |
| 20260506104206 | 16 | 83 | 3.2 | 4.8 | 0.08 | 0.23 | 0.15 | 87 | 1011.6 |
| 20260506104003 | 16 | 83 | 3.2 | 4.8 | 0.08 | 0.23 | 0.15 | 87 | 1011.6 |
| 20260506103630 | 16 | 72 | 0.0 | 1.6 | 0.08 | 0.23 | 0.15 | 86 | 1011.6 |
| 20260506103503 | 16 | 72 | 0.0 | 1.6 | 0.08 | 0.23 | 0.15 | 86 | 1011.6 |
| 20260506103003 | 16 | 5 | 1.6 | 3.2 | 0.08 | 0.23 | 0.15 | 86 | 1011.7 |
| 20260506102503 | 16 | 79 | 1.6 | 1.6 | 0.08 | 0.23 | 0.15 | 86 | 1011.7 |
| 20260506102328 | 16 | 62 | 1.6 | 3.2 | 0.08 | 0.23 | 0.15 | 88 | 1011.6 |
| 20260506102003 | 16 | 62 | 1.6 | 3.2 | 0.08 | 0.23 | 0.15 | 88 | 1011.6 |
| 20260506101502 | 16 | 83 | 0.0 | 1.6 | 0.08 | 0.23 | 0.15 | 89 | 1011.7 |
| 20260506101002 | 16 | 134 | 0.0 | 0.0 | 0.08 | 0.23 | 0.15 | 90 | 1011.8 |
| 20260506100502 | 16 | 134 | 0.0 | 1.6 | 0.03 | 0.18 | 0.10 | 89 | 1011.8 |
| 20260506100002 | 16 | 164 | 0.0 | 1.6 | 0.03 | 0.18 | 0.10 | 87 | 1011.7 |
| 20260506095600 | 16 | 175 | 0.0 | 1.6 | 0.03 | 0.18 | 0.10 | 88 | 1011.8 |
| 20260506095502 | 16 | 175 | 0.0 | 1.6 | 0.03 | 0.18 | 0.10 | 88 | 1011.8 |
| 20260506095002 | 16 | 178 | 0.0 | 0.0 | 0.03 | 0.18 | 0.10 | 87 | 1011.7 |
| 20260506094502 | 17 | 178 | 0.0 | 1.6 | 0.03 | 0.23 | 0.10 | 86 | 1011.8 |
| 20260506094003 | 17 | 178 | 0.0 | 0.0 | 0.00 | 0.18 | 0.08 | 85 | 1011.7 |
| 20260506093503 | 17 | 178 | 0.0 | 0.0 | 0.00 | 0.18 | 0.08 | 84 | 1011.7 |
| 20260506093003 | 17 | 174 | 0.0 | 0.0 | 0.00 | 0.18 | 0.08 | 82 | 1011.7 |
| 20260506092503 | 17 | 184 | 0.0 | 1.6 | 0.00 | 0.23 | 0.08 | 80 | 1011.7 |
| 20260506091503 | 17 | 190 | 0.0 | 0.0 | 0.00 | 0.23 | 0.08 | 81 | 1011.6 |
| 20260506091003 | 17 | 190 | 0.0 | 0.0 | 0.00 | 0.23 | 0.08 | 81 | 1011.7 |
| 20260506090503 | 18 | 126 | 0.0 | 1.6 | 0.00 | 0.23 | 0.08 | 80 | 1011.7 |
| 20260506090003 | 18 | 190 | 0.0 | 0.0 | 0.00 | 0.23 | 0.08 | 77 | 1011.6 |
| 20260506085503 | 18 | 190 | 0.0 | 0.0 | 0.00 | 0.23 | 0.08 | 79 | 1011.5 |
| 20260506085003 | 18 | 190 | 0.0 | 0.0 | 0.00 | 0.23 | 0.08 | 79 | 1011.4 |
| 20260506084503 | 17 | 190 | 0.0 | 0.0 | 0.00 | 0.23 | 0.08 | 80 | 1011.4 |
| 20260506083504 | 17 | 192 | 0.0 | 0.0 | 0.00 | 0.23 | 0.08 | 83 | 1011.3 |
| 20260506083004 | 17 | 192 | 0.0 | 3.2 | 0.00 | 0.23 | 0.08 | 85 | 1011.3 |
| 20260506082504 | 17 | 246 | 0.0 | 0.0 | 0.00 | 0.23 | 0.08 | 84 | 1011.4 |
| 20260506081504 | 17 | 52 | 0.0 | 0.0 | 0.00 | 0.23 | 0.08 | 87 | 1011.3 |
| 20260506081004 | 17 | 48 | 0.0 | 0.0 | 0.00 | 0.23 | 0.08 | 89 | 1011.3 |
| 20260506080504 | 16 | 48 | 0.0 | 0.0 | 0.00 | 0.23 | 0.08 | 91 | 1011.3 |
| 20260506073504 | 15 | 316 | 0.0 | 0.0 | 0.00 | 0.23 | 0.08 | 93 | 1011.5 |
| 20260506073005 | 15 | 316 | 0.0 | 1.6 | 0.00 | 0.23 | 0.08 | 93 | 1011.4 |
| 20260506072505 | 15 | 315 | 0.0 | 0.0 | 0.00 | 0.23 | 0.08 | 93 | 1011.5 |
| 20260506072005 | 15 | 306 | 0.0 | 0.0 | 0.00 | 0.23 | 0.08 | 93 | 1011.5 |
| 20260506071505 | 15 | 306 | 0.0 | 0.0 | 0.00 | 0.23 | 0.08 | 93 | 1011.5 |
| 20260506071005 | 15 | 204 | 0.0 | 0.0 | 0.00 | 0.23 | 0.08 | 94 | 1011.6 |
| 20260506070505 | 15 | 204 | 0.0 | 0.0 | 0.00 | 0.23 | 0.08 | 94 | 1011.6 |
| 20260506062505 | 14 | 62 | 0.0 | 0.0 | 0.03 | 0.23 | 0.08 | 94 | 1011.5 |
| 20260506062231 | 14 | 62 | 0.0 | 1.6 | 0.03 | 0.23 | 0.08 | 94 | 1011.4 |
| 20260506062005 | 14 | 62 | 0.0 | 1.6 | 0.03 | 0.23 | 0.08 | 94 | 1011.4 |
| 20260506061504 | 14 | 62 | 0.0 | 1.6 | 0.03 | 0.23 | 0.08 | 95 | 1011.5 |
| 20260506061005 | 14 | 62 | 0.0 | 1.6 | 0.03 | 0.23 | 0.08 | 95 | 1011.4 |
| 20260506060505 | 14 | 62 | 0.0 | 0.0 | 0.03 | 0.23 | 0.08 | 95 | 1011.3 |
| 20260506051005 | 13 | 77 | 0.0 | 1.6 | 0.03 | 0.18 | 0.03 | 94 | 1011.8 |
| 20260506050505 | 13 | 76 | 0.0 | 0.0 | 0.03 | 0.18 | 0.03 | 94 | 1011.7 |
| 20260506045004 | 13 | 77 | 0.0 | 0.0 | 0.00 | 0.15 | 0.00 | 94 | 1011.7 |
| 20260506044504 | 13 | 72 | 0.0 | 0.0 | 0.00 | 0.15 | 0.00 | 94 | 1011.7 |
| 20260506044004 | 13 | 72 | 0.0 | 1.6 | 0.00 | 0.15 | 0.00 | 94 | 1011.6 |
| 20260506043504 | 13 | 72 | 0.0 | 1.6 | 0.00 | 0.15 | 0.00 | 94 | 1011.7 |
| 20260506043004 | 13 | 72 | 1.6 | 6.4 | 0.00 | 0.15 | 0.00 | 94 | 1011.4 |
| 20260506042504 | 13 | 64 | 3.2 | 6.4 | 0.00 | 0.15 | 0.00 | 94 | 1011.3 |
| 20260506042004 | 13 | 60 | 1.6 | 3.2 | 0.00 | 0.15 | 0.00 | 94 | 1011.3 |
| 20260506041504 | 13 | 68 | 1.6 | 4.8 | 0.00 | 0.15 | 0.00 | 94 | 1011.4 |
| 20260506041004 | 13 | 72 | 1.6 | 4.8 | 0.00 | 0.15 | 0.00 | 94 | 1011.3 |
| 20260506040504 | 13 | 71 | 0.0 | 1.6 | 0.00 | 0.15 | 0.00 | 94 | 1011.2 |
| 20260506040004 | 13 | 70 | 3.2 | 4.8 | 0.00 | 0.15 | 0.00 | 94 | 1011.1 |
| 20260506035504 | 13 | 73 | 1.6 | 3.2 | 0.00 | 0.15 | 0.00 | 94 | 1011.3 |
| 20260506035004 | 13 | 73 | 3.2 | 6.4 | 0.00 | 0.15 | 0.00 | 94 | 1011.3 |
| 20260506034504 | 13 | 73 | 1.6 | 4.8 | 0.00 | 0.15 | 0.00 | 94 | 1011.4 |
| 20260506034004 | 13 | 74 | 0.0 | 3.2 | 0.00 | 0.15 | 0.00 | 94 | 1011.5 |
| 20260506033504 | 13 | 75 | 3.2 | 8.0 | 0.00 | 0.15 | 0.00 | 94 | 1011.6 |
| 20260506033005 | 13 | 72 | 1.6 | 4.8 | 0.00 | 0.15 | 0.00 | 94 | 1011.7 |
| 20260506032505 | 13 | 77 | 0.0 | 0.0 | 0.00 | 0.15 | 0.00 | 94 | 1011.8 |
| 20260506032005 | 13 | 77 | 1.6 | 6.4 | 0.00 | 0.15 | 0.00 | 94 | 1011.9 |
| 20260506031505 | 13 | 72 | 3.2 | 6.4 | 0.00 | 0.15 | 0.00 | 94 | 1011.8 |
| 20260506031005 | 13 | 72 | 1.6 | 3.2 | 0.00 | 0.15 | 0.00 | 94 | 1011.7 |
| 20260506030505 | 12 | 77 | 1.6 | 3.2 | 0.00 | 0.15 | 0.00 | 94 | 1011.7 |
| 20260506030005 | 12 | 66 | 3.2 | 6.4 | 0.00 | 0.15 | 0.00 | 94 | 1011.8 |
| 20260506025505 | 12 | 74 | 0.0 | 6.4 | 0.00 | 0.15 | 0.00 | 94 | 1011.9 |
| 20260506025005 | 12 | 68 | 3.2 | 4.8 | 0.00 | 0.15 | 0.00 | 94 | 1012.0 |
| 20260506024505 | 12 | 67 | 0.0 | 1.6 | 0.00 | 0.15 | 0.00 | 94 | 1012.0 |
| 20260506024005 | 12 | 48 | 0.0 | 1.6 | 0.00 | 0.15 | 0.00 | 94 | 1012.0 |
| 20260506023505 | 12 | 27 | 1.6 | 1.6 | 0.00 | 0.15 | 0.00 | 94 | 1012.0 |
| 20260506023005 | 12 | 27 | 0.0 | 3.2 | 0.00 | 0.15 | 0.00 | 94 | 1012.0 |
| 20260506022506 | 12 | 22 | 0.0 | 1.6 | 0.00 | 0.15 | 0.00 | 94 | 1012.1 |
| 20260506022006 | 12 | 23 | 0.0 | 3.2 | 0.00 | 0.15 | 0.00 | 94 | 1012.1 |
| 20260506021506 | 12 | 21 | 0.0 | 1.6 | 0.00 | 0.15 | 0.00 | 94 | 1012.0 |
| 20260506021006 | 12 | 20 | 1.6 | 3.2 | 0.00 | 0.15 | 0.00 | 94 | 1012.1 |
| 20260506020506 | 12 | 23 | 0.0 | 1.6 | 0.00 | 0.15 | 0.00 | 94 | 1012.1 |
| 20260506020006 | 12 | 24 | 0.0 | 1.6 | 0.00 | 0.15 | 0.00 | 94 | 1012.4 |
| 20260506015506 | 12 | 24 | 0.0 | 0.0 | 0.00 | 0.15 | 0.00 | 94 | 1012.4 |
| 20260506015006 | 12 | 23 | 0.0 | 1.6 | 0.00 | 0.15 | 0.00 | 94 | 1012.4 |
| 20260506014506 | 12 | 23 | 0.0 | 1.6 | 0.00 | 0.15 | 0.00 | 94 | 1012.5 |
| 20260506014006 | 12 | 23 | 0.0 | 0.0 | 0.00 | 0.15 | 0.00 | 94 | 1012.5 |
| 20260506013506 | 12 | 23 | 1.6 | 1.6 | 0.00 | 0.15 | 0.00 | 94 | 1012.6 |
| 20260506012506 | 12 | 23 | 0.0 | 0.0 | 0.00 | 0.15 | 0.00 | 94 | 1012.5 |
| 20260506012007 | 12 | 23 | 0.0 | 0.0 | 0.00 | 0.15 | 0.00 | 94 | 1012.5 |
| 20260506011506 | 12 | 23 | 0.0 | 0.0 | 0.00 | 0.15 | 0.00 | 94 | 1012.6 |
| 20260506011006 | 12 | 23 | 0.0 | 0.0 | 0.00 | 0.15 | 0.00 | 94 | 1012.6 |
| 20260506010505 | 12 | 23 | 0.0 | 1.6 | 0.00 | 0.15 | 0.00 | 94 | 1012.6 |
| 20260506005504 | 12 | 23 | 1.6 | 1.6 | 0.00 | 0.15 | 0.00 | 94 | 1012.6 |
| 20260506005004 | 12 | 23 | 1.6 | 3.2 | 0.00 | 0.15 | 0.00 | 94 | 1012.6 |
| 20260506004504 | 12 | 23 | 0.0 | 0.0 | 0.00 | 0.15 | 0.00 | 94 | 1012.6 |
| 20260506004003 | 12 | 23 | 0.0 | 0.0 | 0.00 | 0.15 | 0.00 | 94 | 1012.6 |
| 20260506003503 | 12 | 23 | 0.0 | 0.0 | 0.00 | 0.15 | 0.00 | 94 | 1012.7 |